Regional Weather Roundup
Issued by NWS Newport/Morehead, NC

Current Version | Previous Version | Graphics & Text | Print | Product List | Glossary Off
Versions: 1 2 3 4 5 6 7 8 9 10 11 12 13 14 15 16 17 18 19 20 21 22 23 24 25 26 27 28 29 30 31 32 33 34 35 36 37 38 39 40 41 42 43 44 45 46 47 48 49 50

000
ASUS42 KMHX 280825
RWRMHX
WEATHER ROUNDUP FOR EASTERN NORTH CAROLINA
NATIONAL WEATHER SERVICE NEWPORT/MOREHEAD CITY NC
300 AM EST TUE FEB 28 2017

NOTE: "FAIR" INDICATES FEW OR NO CLOUDS BELOW 12,000 FEET
WITH NO SIGNIFICANT WEATHER AND/OR OBSTRUCTIONS TO VISIBILITY

NCZ015>017-031-032-045>047-102-103-280900-
NORTH COAST

CITY           SKY/WX    TMP DP  RH WIND       PRES   REMARKS
EDENTON        CLOUDY    55  50  83 S3        30.35F
ELIZABETH CITY CLOUDY    54  50  86 CALM      30.35F
KITTY HAWK     NOT AVBL
MANTEO         CLOUDY    56  55  94 CALM      30.35F

$$

NCZ045>047-081-094-103-104-280900-
CENTRAL COAST

CITY           SKY/WX    TMP DP  RH WIND       PRES   REMARKS
FRISCO         CLOUDY    68  58  70 SW7       30.34F HAZE

$$

NCZ095-097-098-100-101-280900-
SOUTHERN COAST

CITY           SKY/WX    TMP DP  RH WIND       PRES   REMARKS
BEAUFORT       LGT RAIN  58  54  86 CALM      30.34F
CEDAR ISLAND   NOT AVBL
JACKSONVILLE   CLOUDY    57  53  86 CALM      30.33F
PINEY ISLAND   CLOUDY   N/A N/A N/A CALM      30.34
WILMINGTON     CLOUDY    60  57  89 NE5       30.32S


$$

NCZ011>013-027>030-043-044-078>080-089-090>093-098-280900-
COASTAL PLAIN

CITY           SKY/WX    TMP DP  RH WIND       PRES   REMARKS
AHOSKIE          N/A     52  47  83 CALM      30.34F
CLINTON        CLOUDY    56  51  84 E5        30.33F
ELIZABETHTOWN  CLOUDY    55  54  97 E3        30.32F
GOLDSBORO      CLOUDY    53  53  97 CALM      30.31F
GREENVILLE     CLOUDY    50  50 100 CALM      30.34F
HAVELOCK       CLOUDY    56  34  43 VRB3      30.35F
KENANSVILLE    CLOUDY    52  48  87 CALM      30.34F
KINSTON        NOT AVBL
NEW BERN       CLOUDY    51  50  96 CALM      30.36S
RICHLANDS      CLOUDY    53  50  89 CALM      30.35S
ROCKY MOUNT    CLOUDY    56  49  77 S5        30.33F
WASHINGTON     PTCLDY    53  49  85 CALM      30.35S
WHITEVILLE     LGT RAIN  57  53  86 CALM      30.31F

$$

AMZ130-135-150-152-154-156-158-170-250-252-270-ANZ085-086-088-633-658-670-280900-
MARINE OBSERVATIONS

STATION/POSITION TIME  TEMP    WIND        PRES    WAVE   SWELL
                       AIR SEA DIR/SP/G            HT/PER HT/PER
                 (UTC) (F)     (DEG/KT/KT) (MB)    (FT/S) (FT/S)
CHESAPEAKE LIGHT NOT AVBL
64 E VA BEACH    0750   57 51  170/  2/  2 1027.9    4/ 5   3/ 5
DUCK             0800   54 49  140/  2/  3 1027.0
2 E DUCK         0800      51                N/A     2/ 5
OREGON INLET     0800   61 57  170/  4/  5 1027.5
13E OREGON INLT  NOT AVBL
HATTERAS CG      0800   66 62  230/  5/  8 1027.1
DIAMOND BUOY     0750   70 71  200/ 16/ 19 1027.2    4/ 8   2/ 8
CAPE LOOKOUT     0800   65     300/  3/  3 1027.3
BEAUFORT LAB     0800   59 61   CALM  /  1 1026.5
30 SE NEW RVR IN 0808   67     180/  8/ 12 1026.8
30 SE NEW RVR IN 0813      65                N/A     5/ 5
27 SE WRIGHTSVLE 0808   66 62  170/  8/ 10 1025.6
5 SE WRIGHTSVLE  0808   60 58   70/  2/  6 1026.5
225 S CAPE HAT   0750   69 70  130/ 14/ 16 1028.1    4/ 5   3/ 8
41 SE CHARLESTON 0750   71 68  180/ 21/ 23 1023.5    5/ 6

$$




USA.gov is the U.S. government's official web portal to all federal, state and local government web resources and services.